{"data":{"norad_id":56732,"epoch":"2026-09-21T23:40:10.474176Z","epoch_age_seconds":68322,"freshness":"FRESH","line1":"1 56732U 23069B   26264.98623234  .00003188  00000+0  19657-3 0  9990","line2":"2 56732  41.0079 239.0829 0011502 200.5830 159.4521 15.11258595184873","mean_motion":15.11258595,"eccentricity":0.0011502,"inclination_deg":41.0079,"raan_deg":239.0829,"arg_perigee_deg":200.583,"mean_anomaly_deg":159.4521,"bstar":0.00019657,"rev_number":18487,"period_min":95.284817883865,"perigee_km":524.41211834146,"apogee_km":540.30902695759,"semimajor_km":6910.4975726495,"source":"CELESTRAK","updated_at":"2026-09-22T09:00:25.904004Z"}}